Погода в Сушилово

Россия / Новгородская область     58˚25′02″N   33˚37′06″E
темп.,
°C
ветер,
м/с
пор.,
м/с
влажн.,
%
обл.,
%
осадки,
мм/ч
давл.,
гПа
погр.,
м
17 января, вс
вс1700:00−19˚ссз259244 0.0 1016160
03:00−20˚ссз249323 0.0 101699
06:00−20˚сз249627 0.0 101791
09:00−19˚сз249718 0.0 101786
12:00−15˚зсз129159 0.0 1018139
15:00−13˚з249274 0.0 1017212
18:00−14˚зюз249667 0.1 1017144
21:00−14˚зюз259579 0.2 1017192
18 января, пн
пн1800:00−13˚зюз269598 0.3 1017223
03:00−12˚зюз269594 0.6 1017209
06:00−11˚зюз259594 0.1 1015196
09:00−12˚зюз239696 0.2 101665
12:00−10˚зюз139193 0.1 1017150
15:00−9˚з129392 0.2 1016189
18:00−12˚з129674 0.0 101721
21:00−12˚з119779 0.1 101721
19 января, вт
вт1900:00−11˚зюз119788 0.1 101721
03:00−11˚з119684 0.1 101721
06:00−11˚зюз119787 0.1 101621
09:00−11˚зюз119684 0.2 101721
12:00−10˚зюз129379 0.1 1017115
15:00−9˚зюз139485 0.1 1016191
18:00−12˚зюз129680 0.0 101721
21:00−13˚зюз129641 0.1 101821
20 января, ср
ср2000:00−13˚зюз229774 0.0 101836
03:00−14˚юз229777 0.1 101945
06:00−14˚зюз229779 0.0 101937
09:00−15˚юз129670 0.1 101925
12:00−11˚ююз13880 0.0 1019157
15:00−9˚ююз24900 0.0 1019223
18:00−12˚ю23940 0.0 101848
21:00−13˚ю239317 0.0 101790
21 января, чт
чт2100:00−12˚ююв279194 0.0 1016160
03:00−12˚ююв268897 0.0 1015186
06:00−11˚юв3890100 0.0 1012285
09:00−9˚ю3894100 0.6 1011464
12:00−7˚ю3693100 1.0 1010472
15:00−6˚ю2592100 1.4 1009394
18:00−6˚ю2695100 0.3 1009284
21:00−4˚ю2795100 0.7 1008317